Erzincan, Turkey

10:58 AM +03 on February 21, 2018 (GMT +0300)
Erzincan

Weather History for LTCD - November, 2012

Change the Weather History Date:

Sunday, November 18, 2012

  Actual Average Record
Temperature  
Mean Temperature 42 °F -  
Max Temperature 58 °F 45 °F - ()
Min Temperature 26 °F 29 °F - ()
Degree Days  
Heating Degree Days 23    
Moisture  
Dew Point 32 °F    
Average Humidity 76    
Maximum Humidity 100    
Minimum Humidity 25    
Precipitation  
Precipitation 0.00 in 0.05 in - ()
Sea Level Pressure  
Sea Level Pressure 30.17 in    
Wind  
Wind Speed 1 mph ()    
Max Wind Speed 2 mph    
Max Gust Speed -    
Visibility 5.4 miles    
Events      
T = Trace of Precipitation, MM = Missing Value Source: Averaged Metar Reports

Daily Weather History Graph

Daily Weather History Graph

Search for Another Location

Airport or City:

Trip Planner

Search our weather history database for the weather conditions in past years. The results will help you decide how hot, cold, wet, or windy it might be!

Date:

Astronomy

Nov. 18, 2012 Rise Set
Actual Time 6:10 AM EET 4:03 PM EET
Civil Twilight 5:41 AM EET 4:33 PM EET
Nautical Twilight 5:08 AM EET 5:05 PM EET
Astronomical Twilight 4:36 AM EET 5:37 PM EET
Moon 10:22 AM EET (11/18) 8:58 PM EET (11/18)
Length of Visible Light 10h 52m
Length of Day
9h 53m
Waxing Crescent, 27% of the Moon is Illuminated
Nov 18
Waxing Crescent
Nov 20
First Quarter
Nov 28
Full
Dec 6
Last Quarter
Dec 13
New

Hourly Weather History & Observations

Time (EET) Temp. Dew Point Humidity Pressure Visibility Wind Dir Wind Speed Gust Speed Precip Events Conditions
12:50 AM 32.0 °F 32.0 °F 100% 30.21 in - Variable 1.2 mph - N/A   Clear
1:50 AM 32.0 °F 30.2 °F 93% 30.21 in - Calm Calm - N/A   Clear
2:00 AM 31 °F 30 °F 95%  in 6 mi Calm Calm - -  
2:50 AM 30.2 °F 28.4 °F 93% 30.21 in - Calm Calm - N/A   Clear
3:50 AM 28.4 °F 28.4 °F 100% 30.21 in - Calm Calm - N/A   Clear
4:50 AM 28.4 °F 28.4 °F 100% 30.21 in 4.3 mi NNW 2.3 mph - N/A   Unknown
5:50 AM 28.4 °F 26.6 °F 93% 30.24 in 3.7 mi Calm Calm - N/A   Unknown
6:50 AM 30.2 °F 28.4 °F 93% 30.24 in 2.5 mi North 2.3 mph - N/A   Mist
7:50 AM 35.6 °F 32.0 °F 87% 30.24 in 3.7 mi South 2.3 mph - N/A   Unknown
8:00 AM 35 °F 33 °F 88%  in 4 mi South 2.3 mph - -   Mist
8:50 AM 42.8 °F 35.6 °F 76% 30.24 in - Calm Calm - N/A   Clear
9:50 AM 48.2 °F 33.8 °F 58% 30.21 in 6.2 mi Calm Calm - N/A   Partly Cloudy
10:50 AM 51.8 °F 33.8 °F 50% 30.18 in 6.2 mi SSW 1.2 mph - N/A   Partly Cloudy
11:50 AM 53.6 °F 30.2 °F 41% 30.18 in 6.2 mi Variable 1.2 mph - N/A   Partly Cloudy
12:50 PM 57.2 °F 30.2 °F 36% 30.15 in 6.2 mi Calm Calm - N/A   Scattered Clouds
1:50 PM 55.4 °F 28.4 °F 36% 30.12 in 6.2 mi Variable 2.3 mph - N/A   Scattered Clouds
2:00 PM 55 °F 29 °F 25%  in 6 mi South 2.3 mph - -   Scattered Clouds
2:50 PM 55.4 °F 30.2 °F 38% 30.12 in 6.2 mi Variable 1.2 mph - N/A   Scattered Clouds
3:50 PM 51.8 °F 32.0 °F 47% 30.12 in 6.2 mi Calm Calm - N/A   Scattered Clouds
4:50 PM 46.4 °F 33.8 °F 62% 30.12 in 6.2 mi Calm Calm - N/A   Scattered Clouds
5:50 PM 42.8 °F 35.6 °F 76% 30.15 in 6.2 mi Variable 1.2 mph - N/A   Partly Cloudy
6:50 PM 39.2 °F 35.6 °F 87% 30.15 in - WNW 1.2 mph - N/A   Clear
7:50 PM 37.4 °F 33.8 °F 87% 30.12 in - Variable 1.2 mph - N/A   Clear
8:00 PM 37 °F 34 °F 84%  in 6 mi WNW 1.2 mph - -  
8:50 PM 35.6 °F 33.8 °F 93% 30.12 in - West 1.2 mph - N/A   Clear
9:50 PM 33.8 °F 32.0 °F 93% 30.15 in - Variable 1.2 mph - N/A   Clear
10:50 PM 35.6 °F 33.8 °F 93% 30.15 in - Variable 1.2 mph - N/A   Clear
11:50 PM 32.0 °F 32.0 °F 100% 30.15 in - West 2.3 mph - N/A   Clear